Location: Arbon
(43.0005°N, 0.7472°E)
Time: 15:54:36
(UTC+00:00)

A-11 Canister half - Pass Details

Date: 29 November 2020
Orbit: 1517 x 1683 km, 47.2° (Epoch: 15 January)

Event Time Altitude Azimuth Distance (km) Brightness Sun altitude
Rises 16:39:55 0° 293° (WNW) 4,910 12.3 -3.4°
Reaches altitude 10° 16:43:03 10° 293° (WNW) 3,933 11.8 -3.9°
Maximum altitude 16:53:13 81° 208° (SSW) 1,702 9.4 -5.6°
Drops below altitude 10° 17:03:21 10° 123° (ESE) 3,921 10.8 -7.3°
Sets 17:06:28 0° 122° (ESE) 4,894 11.3 -7.8°
